George, South Africa

12:16 PM SAST on June 26, 2017 (GMT +0200)
George

Weather History for FAGG - November, 2014

Change the Weather History Date:

Saturday, November 22, 2014

  Actual Average Record
Temperature  
Mean Temperature 60 °F -  
Max Temperature 71 °F 71 °F 80 °F (2013)
Min Temperature 50 °F 56 °F 48 °F (2011)
Degree Days  
Heating Degree Days 4    
Growing Degree Days 10 (Base 50)    
Moisture  
Dew Point 57 °F    
Average Humidity 77    
Maximum Humidity 100    
Minimum Humidity 52    
Precipitation  
Precipitation 0.00 in - - ()
Sea Level Pressure  
Sea Level Pressure 29.98 in    
Wind  
Wind Speed 7 mph ()    
Max Wind Speed 17 mph    
Max Gust Speed -    
Visibility 8.0 miles    
Events      
Averages and records for this station are not official NWS values.
T = Trace of Precipitation, MM = Missing Value Source: Averaged Metar Reports

Daily Weather History Graph

Daily Weather History Graph

Search for Another Location

Airport or City:

Trip Planner

Search our weather history database for the weather conditions in past years. The results will help you decide how hot, cold, wet, or windy it might be!

Date:

Astronomy

Nov. 22, 2014 Rise Set
Actual Time 5:14 AM SAST 7:18 PM SAST
Civil Twilight 4:46 AM SAST 7:46 PM SAST
Nautical Twilight 4:12 AM SAST 8:20 PM SAST
Astronomical Twilight 3:36 AM SAST 8:57 PM SAST
Moon 5:15 AM SAST (11/22) 7:17 PM SAST (11/22)
Length of Visible Light 14h 59m
Length of Day
14h 03m
Waning Crescent, 0% of the Moon is Illuminated
Nov 22
Waning Crescent
Nov 22
New
Nov 29
First Quarter
Dec 6
Full
Dec 14
Last Quarter

Hourly Weather History & Observations

Time (SAST) Temp. Dew Point Humidity Pressure Visibility Wind Dir Wind Speed Gust Speed Precip Events Conditions
12:00 AM 57.2 °F 53.6 °F 88% 30.06 in - North 4.6 mph - N/A   Clear
2:00 AM 53 °F 51 °F 92% 30.05 in - NNE 2.3 mph - -  
5:00 AM 52 °F 49 °F 85% 30.02 in 12 mi 1.2 mph - -  
5:00 AM 51.8 °F 50.0 °F 94% 30.01 in - NW 1.2 mph - N/A   Clear
6:00 AM 51.8 °F 48.2 °F 88% 30.01 in - Variable 2.3 mph - N/A   Clear
7:00 AM 59.0 °F 53.6 °F 82% 30.04 in - Variable 1.2 mph - N/A   Clear
8:00 AM 64 °F 56 °F 69% 30.03 in 12 mi East 8.1 mph - -  
8:00 AM 64.4 °F 55.4 °F 73% 30.01 in - East 8.1 mph - N/A   Clear
9:00 AM 68.0 °F 53.6 °F 60% 30.01 in - ESE 11.5 mph - N/A   Clear
10:00 AM 68.0 °F 55.4 °F 64% 30.01 in 6.2 mi SE 12.7 mph - N/A   Partly Cloudy
11:00 AM 69 °F 56 °F 55% 30.01 in 12 mi ESE 10.4 mph - -   Scattered Clouds
11:00 AM 68.0 °F 57.2 °F 68% 30.01 in 6.2 mi ESE 10.4 mph - N/A   Partly Cloudy
12:00 PM 69.8 °F 59.0 °F 68% 29.98 in 6.2 mi ESE 12.7 mph - N/A   Partly Cloudy
1:00 PM 71.6 °F 59.0 °F 64% 29.98 in - East 11.5 mph - N/A   Clear
2:00 PM 70 °F 56 °F 52% 29.96 in 12 mi ESE 15.0 mph - -   Scattered Clouds
2:00 PM 69.8 °F 55.4 °F 60% 29.95 in 6.2 mi ESE 13.8 mph - N/A   Partly Cloudy
3:00 PM 69.8 °F 59.0 °F 68% 29.92 in 6.2 mi East 15.0 mph - N/A   Partly Cloudy
4:00 PM 68.0 °F 57.2 °F 68% 29.92 in 6.2 mi East 16.1 mph - N/A   Partly Cloudy
5:00 PM 67 °F 59 °F 69% 29.92 in 12 mi ESE 16.1 mph - -   Scattered Clouds
5:00 PM 68.0 °F 59.0 °F 73% 29.92 in 6.2 mi ESE 13.8 mph - N/A   Partly Cloudy
6:00 PM 66.2 °F 59.0 °F 78% 29.89 in 6.2 mi ESE 17.3 mph - N/A   Partly Cloudy
7:00 PM 64.4 °F 60.8 °F 88% 29.92 in 6.2 mi ESE 13.8 mph - N/A   Scattered Clouds
8:00 PM 63 °F 61 °F 90% 29.94 in 12 mi East 11.5 mph - -   Partly Cloudy
8:00 PM 62.6 °F 60.8 °F 94% 29.92 in 6.2 mi East 11.5 mph - N/A   Scattered Clouds
9:00 PM 62.6 °F 60.8 °F 94% 29.95 in 6.2 mi ESE 9.2 mph - N/A   Scattered Clouds
10:00 PM 62.6 °F 60.8 °F 94% 29.95 in 6.2 mi East 6.9 mph - N/A   Scattered Clouds
11:00 PM 62.6 °F 62.6 °F 100% 29.95 in 6.2 mi East 3.5 mph - N/A   Overcast